OpenBCM V2.0.3 (Linux)

Packet Radio Mailbox

IZ3LSV

[San Dona' di P. JN]

 Login: GUEST





  
LU9DCE > KEP      05.12.19 15:22l 439 Lines 21926 Bytes #999 (0) @ WW
BID : 4451_LU9DCE
Read: GUEST
Subj: TLE 04 12
Path: IZ3LSV<IQ2LB<IQ5KG<I0OJJ<EA2RCF<LU9DCE
Sent: 191204/1908Z 4451@LU9DCE.TOR.BA.ARG.SOAM LinBPQ6.0.19

            __    _  _  ___  ____   ___  ____    ____  ____  ____
           (  )  / )( \/ _ \(    \ / __)(  __)  (  _ \(  _ \/ ___)
           / (_/\) \/ (\__  )) D (( (__  ) _)    ) _ ( ) _ (\___ \
           \____/\____/(___/(____/ \___)(____)  (____/(____/(____/
               ESTACION DE PACKET RADIO - BUENOS AIRES (GF05OM)
                   BOLETINES INFORMATIVOS PROGRAMADOS (BIP)
                  SLACKWARE LINUX - HELLOCODELINUX@GMAIL.COM
+----------------------------------------------------------------------------+
OSCAR 7
1  7530U 74089B   19337.91685491 -.00000031 +00000-0 +91133-4 0  9995
2  7530 101.7707 303.9982 0012433 023.5876 348.5888 12.53641000061360
OSCAR 11 (UoSAT 2)
1 14781U 84021B   19337.62697948 +.00000075 +00000-0 +15330-4 0  9998
2 14781 097.6003 354.3022 0009736 122.9882 237.2269 14.83124804902652
OSCAR 19 (LUSAT)
1 20442U 90005G   19337.88198559 +.00000020 +00000-0 +23658-4 0  9992
2 20442 098.6680 279.7334 0012156 019.0228 341.1407 14.32939564560404
EYESAT A
1 22825U 93061C   19337.55918665 -.00000009 +00000-0 +14538-4 0  9991
2 22825 098.9163 330.1363 0007638 225.5555 134.5002 14.30072528365673
ITAMSAT
1 22826U 93061D   19337.73156151 +.00000004 +00000-0 +19453-4 0  9991
2 22826 098.9103 330.2834 0008315 212.9226 147.1439 14.30407033365925
RADIO ROSTO
1 23439U 94085A   19337.93918115 -.00000041 +00000-0 +44487-4 0  9994
2 23439 064.8144 204.0459 0145736 080.2622 281.4726 11.27569073026863
JAS 2
1 24278U 96046B   19337.84717571 +.00000011 +00000-0 +46154-4 0  9997
2 24278 098.5623 108.6580 0350636 163.9913 197.2650 13.53095017150292
TECHSAT 1B
1 25397U 98043D   19337.87156289 -.00000005 +00000-0 +17061-4 0  9994
2 25397 098.7067 276.0956 0000203 284.2381 075.8775 14.23675418111589
ISS (ZARYA)
1 25544U 98067A   19338.22182757  .00000604  00000-0  18564-4 0  9996
2 25544  51.6430 238.3114 0006882 358.5315 151.4187 15.50087058201635
PCSAT
1 26931U 01043C   19337.57375310 -.00000021 +00000-0 +23687-4 0  9997
2 26931 067.0514 290.4567 0007284 264.8620 095.1650 14.30560577948913
SAUDISAT 1C
1 27607U 02058C   19337.82941721 -.00000059 +00000-0 +12557-4 0  9993
2 27607 064.5554 255.5302 0070793 223.4930 136.0576 14.75592827911711
CUTE-1
1 27844U 03031E   19337.93886343 +.00000045 +00000-0 +40052-4 0  9993
2 27844 098.6840 343.6368 0008823 263.6979 096.3194 14.22208822852163
CUBESAT XI 4
1 27848U 03031J   19337.83833693 +.00000028 +00000-0 +32445-4 0  9994
2 27848 098.6914 344.0704 0008694 277.3095 082.7094 14.21799851852002
MOZHAYETS 4
1 27939U 03042A   19337.92860822 +.00000005 +00000-0 +95528-5 0  9998
2 27939 098.0642 110.7137 0011830 253.1574 106.8321 14.66821180865200
CUBESAT XI 5
1 28895U 05043F   19337.67745022 +.00000111 +00000-0 +30229-4 0  9993
2 28895 097.9823 114.9017 0016934 177.2952 182.8346 14.63716810751823
CUTE-1.7+APD II
1 32785U 08021C   19337.82879552 +.00000196 +00000-0 +26681-4 0  9998
2 32785 097.5588 329.6967 0014476 068.0377 292.2378 14.88383413628624
DELFI C3
1 32789U 08021G   19337.86077722 +.00001021 +00000-0 +71584-4 0  9995
2 32789 097.4450 022.2950 0010590 268.8641 091.1374 15.07300562632195
SEEDS
1 32791U 08021J   19337.83137941 +.00000292 +00000-0 +34867-4 0  9997
2 32791 097.5324 335.8068 0014303 042.7894 317.4435 14.90924060629089
YUBELEINY
1 32953U 08025A   19337.93634877 +.00000021 +00000-0 +75656-4 0  9993
2 32953 082.5067 040.1298 0020245 122.0524 238.2528 12.43092556523215
PRISM (HITOMI)
1 33493U 09002B   19337.59815006 +.00000414 +00000-0 +41682-4 0  9994
2 33493 098.1279 264.9567 0014996 351.5749 008.5217 14.96823470590250
KKS-1 (KISEKI)
1 33499U 09002H   19337.85855843 +.00000092 +00000-0 +21585-4 0  9994
2 33499 098.3346 181.8295 0009879 037.5202 322.6694 14.75484889583599
SWISSCUBE
1 35932U 09051B   19337.72280945 +.00000115 +00000-0 +37130-4 0  9992
2 35932 098.5995 148.7821 0007840 018.3148 341.8329 14.56335826541197
BEESAT
1 35933U 09051C   19337.92195037 +.00000108 +00000-0 +35271-4 0  9998
2 35933 098.6008 150.8110 0006305 032.4199 327.7384 14.56418698541291
ITUPSAT 1
1 35935U 09051E   19337.73327064 +.00000072 +00000-0 +27841-4 0  9990
2 35935 098.6117 150.8401 0008564 028.4981 331.6682 14.55571765541053
XIWANG-1 (HOPE-1)
1 36122U 09072B   19337.78191754 -.00000035 +00000-0 +18807-4 0  9994
2 36122 100.0800 332.3040 0007026 320.5377 039.5225 13.16352489478997
TISAT 1
1 36799U 10035E   19337.90980537 +.00000327 +00000-0 +39082-4 0  9995
2 36799 098.1744 135.8811 0011061 252.4923 107.5085 14.91217514509636
JUGNU
1 37839U 11058B   19337.86589667 +.00000298 +00000-0 +17312-4 0  9990
2 37839 019.9625 034.9354 0019087 021.5657 134.1560 14.12665984420959
SRMSAT
1 37841U 11058D   19337.73060323 +.00000287 +00000-0 +12658-4 0  9998
2 37841 019.9717 096.0063 0011729 242.8630 264.9418 14.10644537420351
M-CUBED/EXP-1 PRIME
1 37855U 11061F   19337.53204478 +.00001080 +00000-0 +61545-4 0  9997
2 37855 101.7247 319.3759 0172304 299.2085 059.1988 15.05848793441561
HORYU 2
1 38340U 12025D   19337.86235625 +.00000136 +00000-0 +27813-4 0  9993
2 38340 098.3097 021.3258 0010468 312.1881 047.8438 14.75782514395555
STRAND 1
1 39090U 13009E   19337.81575872 +.00000028 +00000-0 +24909-4 0  9998
2 39090 098.4700 180.8253 0009721 143.7594 216.4252 14.35107989354483
SOMP
1 39134U 13015E   19337.88860148 +.00000843 +00000-0 +47186-4 0  9991
2 39134 064.8618 195.3675 0037665 276.3682 083.3157 15.20547153365781
BEESAT 3
1 39135U 13015F   19337.12427691 +.00000596 +00000-0 +38842-4 0  9995
2 39135 064.8662 218.5243 0041653 279.5651 080.0769 15.17769972365260
BEESAT 2
1 39136U 13015G   19337.95038599 +.00000747 +00000-0 +47076-4 0  9999
2 39136 064.8691 220.1786 0030557 284.8717 074.9025 15.17189614365308
CUBEBUG 1
1 39153U 13018D   19337.50048820 +.00000179 +00000-0 +30257-4 0  9992
2 39153 097.9820 074.7197 0017216 019.3835 340.8028 14.80633493356560
ZACUBE
1 39417U 13066B   19337.51597970 +.00000169 +00000-0 +27543-4 0  9997
2 39417 097.5615 341.5783 0058326 202.4019 157.4646 14.81186816325885
TRITON 1
1 39427U 13066M   19337.69141841 +.00000178 +00000-0 +36429-4 0  9992
2 39427 097.6989 304.8877 0113541 348.3715 011.4871 14.67914685322794
GOMX 1
1 39430U 13066Q   19337.88893699 +.00000224 +00000-0 +49100-4 0  9994
2 39430 097.7687 283.5437 0152399 OSCAR 7
1  7530U 74089B   19337.91685491 -.00000031 +00000-0 +91133-4 0  9995
2  7530 101.7707 303.9982 0012433 023.5876 348.5888 12.53641000061360
OSCAR 11 (UoSAT 2)
1 14781U 84021B   19337.62697948 +.00000075 +00000-0 +15330-4 0  9998
2 14781 097.6003 354.3022 0009736 122.9882 237.2269 14.83124804902652
OSCAR 19 (LUSAT)
1 20442U 90005G   19337.88198559 +.00000020 +00000-0 +23658-4 0  9992
2 20442 098.6680 279.7334 0012156 019.0228 341.1407 14.32939564560404
EYESAT A
1 22825U 93061C   19337.55918665 -.00000009 +00000-0 +14538-4 0  9991
2 22825 098.9163 330.1363 0007638 225.5555 134.5002 14.30072528365673
ITAMSAT
1 22826U 93061D   19337.73156151 +.00000004 +00000-0 +19453-4 0  9991
2 22826 098.9103 330.2834 0008315 212.9226 147.1439 14.30407033365925
RADIO ROSTO
1 23439U 94085A   19337.93918115 -.00000041 +00000-0 +44487-4 0  9994
2 23439 064.8144 204.0459 0145736 080.2622 281.4726 11.27569073026863
JAS 2
1 24278U 96046B   19337.84717571 +.00000011 +00000-0 +46154-4 0  9997
2 24278 098.5623 108.6580 0350636 163.9913 197.2650 13.53095017150292
TECHSAT 1B
1 25397U 98043D   19337.87156289 -.00000005 +00000-0 +17061-4 0  9994
2 25397 098.7067 276.0956 0000203 284.2381 075.8775 14.23675418111589
ISS (ZARYA)
1 25544U 98067A   19338.22182757  .00000604  00000-0  18564-4 0  9996
2 25544  51.6430 238.3114 0006882 358.5315 151.4187 15.50087058201635
PCSAT
1 26931U 01043C   19337.57375310 -.00000021 +00000-0OSCAR 7
1  7530U 74089B   19337.91685491 -.00000031 +00000-0 +91133-4 0  9995
2  7530 101.7707 303.9982 0012433 023.5876 348.5888 12.53641000061360
OSCAR 11 (UoSAT 2)
1 14781U 84021B   19337.62697948 +.00000075 +00000-0 +15330-4 0  9998
2 14781 097.6003 354.3022 0009736 122.9882 237.2269 14.83124804902652
OSCAR 19 (LUSAT)
1 20442U 90005G   19337.88198559 +.00000020 +00000-0 +23658-4 0  9992
2 20442 098.6680 279.7334 0012156 019.0228 341.1407 14.32939564560404
EYESAT A
1 22825U 93061C   19337.55918665 -.00000009 +00000-0 +14538-4 0  9991
2 22825 098.9163 330.1363 0007638 225.5555 134.5002 14.30072528365673
ITAMSAT
1 22826U 93061D   19337.73156151 +.00000004 +00000-0 +19453-4 0  9991
2 22826 098.9103 330.2834 0008315 212.9226 147.1439 14.30407033365925
RADIO ROSTO
1 23439U 94085A   19337.93918115 -.00000041 +00000-0 +44487-4 0  9994
2 23439 064.8144 204.0459 0145736 080.2622 281.4726 11.27569073026863
JAS 2
1 24278U 96046B   19337.84717571 +.00000011 +00000-0 +46154-4 0  9997
2 24278 098.5623 108.6580 0350636 163.9913 197.2650 13.53095017150292
TECHSAT 1B
1 25397U 98043D   19337.87156289 -.00000005 +00000-0 +17061-4 0  9994
2 25397 098.7067 276.0956 0000203 284.2381 075.8775 14.23675418111589
ISS (ZARYA)
1 25544U 98067A   19338.22182757  .00000604  00000-0  18564-4 0  9996
2 25544  51.6430 238.3114 0006882 358.5315 151.4187 15.50087058201635
PCSAT
1 26931U 01043C   19337.57375310 -.00000021 +00000-0 +23687-4 0  9997
2 26931 067.0514 290.4567 0007284 264.8620 095.1650 14.30560577948913
SAUDISAT 1C
1 27607U 02058C   19337.82941721 -.00000059 +00000-0 +12557-4 0  9993
2 27607 064.5554 255.5302 0070793 223.4930 136.0576 14.75592827911711
CUTE-1
1 27844U 03031E   19337.93886343 +.00000045 +00000-0 +40052-4 0  9993
2 27844 098.6840 343.6368 0008823 263.6979 096.3194 14.22208822852163
CUBESAT XI 4
1 27848U 03031J   19337.83833693 +.00000028 +00000-0 +32445-4 0  9994
2 27848 098.6914 344.0704 0008694 277.3095 082.7094 14.21799851852002
